User: anonymous   Login
Location: Caltech
(34.1382°N, 118.1253°W)
Time: 04:55:40
(UTC-08:00)
Language:

TMSAT-1 - Orbit

View from above orbital plane
View from above orbital plane
View from above satellite
View from above satellite

Ground track
Ground track

The orbit data is extracted from the following two-line orbital elements,

1 25396U 98043C   14353.84722359  .00000281  00000-0  13987-3 0   257
2 25396 098.4667 308.5560 0003797 101.7194 310.8414 14.24248804854581
Epoch (UTC): 19 December 2014 20:20:00
Eccentricity: 0.0003797
inclination: 98.4667°
perigee height: 808 km
apogee height: 814 km
right ascension of ascending node: 308.5560°
argument of perigee: 101.7194°
revolutions per day: 14.24248804
mean anomaly at epoch: 310.8414°
orbit number at epoch: 85458

The dashed part of the orbit path shows where the satellite is in the earth's shadow,  

DLR